Vertical_Velocity
12 14 14 8 1 -0 1 4 4 3 2 1 2 2 2 2 2 2 2 2 2 3 3 3 2 2 1 1 1 1 1 1 0 -0 -0 -0 -0 -1 -1 -0 1 3 3 2 0 -1 -2 -2 -2 -1 -0 1 1 2 1 1 0 1 1 1 1 -1 -2 -3 -3 -3 -2 -2 -2
15 16 12 5 1 2 3 4 3 1 0 -0 -0 0 1 1 2 2 2 2 2 2 2 2 1 1 1 1 1 1 1 1 0 -0 -0 -0 -0 -0 -0 -0 0 1 2 2 1 0 -1 -1 -1 -0 0 0 -0 -0 0 1 1 1 1 0 -1 -2 -3 -3 -2 -1 -0 -0 -0
18 15 9 4 3 3 4 3 2 0 -1 -2 -1 -1 -1 0 1 1 2 2 2 2 2 1 1 1 1 1 1 1 1 1 0 0 -0 -0 -0 -0 -0 -0 -0 0 1 2 2 1 1 1 1 1 0 -1 -1 -0 1 1 1 -0 -1 -2 -3 -3 -3 -2 -1 0 1 2 2
17 14 9 6 5 5 5 4 3 1 -0 -1 -2 -2 -2 -2 -1 0 1 1 1 1 1 1 1 1 1 1 1 1 1 0 0 -0 -0 -0 -0 -0 -0 -0 -0 -0 -0 1 2 2 3 3 2 1 -1 -1 -1 0 1 1 -1 -2 -3 -4 -4 -3 -2 -1 -0 0 1 3 3
16 15 13 10 8 7 6 5 4 2 1 1 -1 -2 -2 -2 -1 -0 0 1 1 1 1 1 1 1 1 1 1 1 1 0 0 -0 -0 -0 0 0 0 0 -0 -1 -1 -0 1 3 4 4 2 0 -1 -1 -0 0 0 -1 -3 -4 -4 -4 -3 -2 -1 -1 -0 0 1 2 2
14 15 14 11 8 5 3 2 1 1 1 1 1 -0 -1 -1 -0 0 0 1 1 1 1 1 1 1 1 1 1 1 1 0 0 0 -0 -0 0 0 1 1 -0 -1 -1 -1 1 2 3 3 2 1 -0 -0 0 -0 -1 -2 -2 -3 -3 -3 -2 -1 -0 0 1 1 1 1 1
8 9 8 6 3 -0 -2 -4 -4 -3 -2 0 1 1 1 1 2 2 2 2 1 1 1 1 1 1 1 1 1 1 1 1 0 0 0 0 0 0 1 1 0 -0 -0 -0 1 1 1 1 1 1 1 1 0 -0 -1 -1 -1 -1 -1 -1 -1 -0 0 1 1 1 0 -0 -0
3 2 1 -0 -3 -5 -7 -7 -7 -6 -4 -2 -0 1 1 2 3 3 3 2 2 2 2 2 2 2 2 2 2 1 1 1 1 1 1 0 0 0 1 1 0 0 0 1 0 0 0 0 1 1 2 1 1 1 1 1 0 0 -0 -0 -0 -0 0 0 0 0 -0 -0 0
1 0 -1 -3 -4 -5 -6 -7 -7 -5 -4 -2 -2 -1 -0 1 2 2 2 2 2 2 2 2 3 3 3 2 2 1 1 1 1 1 1 1 1 1 1 1 1 1 1 0 -0 -1 -0 0 1 1 1 1 2 2 2 2 1 0 0 -0 -0 -0 0 0 0 0 0 0 0
3 3 2 1 -1 -2 -4 -5 -4 -3 -2 -2 -2 -2 -1 -0 1 1 2 2 2 2 2 2 3 3 3 2 2 1 1 1 1 1 1 1 1 1 1 1 1 1 0 -0 -1 -1 -0 0 0 0 1 1 2 3 2 1 0 -0 -0 -0 -0 0 0 0 1 1 1 1 1
3 5 5 3 -0 -2 -3 -3 -2 -1 -1 -1 -2 -1 -1 -0 -0 0 1 1 2 2 2 2 2 3 2 2 2 1 1 1 0 1 1 1 1 2 2 2 1 0 -0 -1 -0 -0 -0 -0 -1 -0 0 1 2 2 2 1 -0 -0 -0 -0 0 0 1 1 1 1 1 1 1
-0 1 1 -1 -4 -5 -5 -3 -2 -1 -1 -1 -1 -0 -0 -0 -0 -0 -0 0 0 1 1 2 2 2 2 2 2 1 1 0 0 0 1 1 1 2 2 1 1 0 -0 -0 0 -0 -0 -0 -0 -0 1 1 1 1 1 0 -0 -0 -0 -0 0 1 2 2 2 2 2 1 1
-7 -6 -6 -6 -7 -7 -5 -3 -1 0 1 0 1 1 1 0 -0 -0 -1 -1 -1 -1 0 1 1 1 1 1 1 1 1 0 0 0 1 1 1 1 1 1 0 0 -0 -0 -0 -0 -0 -0 0 1 1 1 1 0 0 -0 -0 0 0 0 1 2 2 2 2 2 1 1 1
-12 -11 -9 -7 -5 -4 -3 -1 1 2 3 2 2 2 1 1 0 0 -0 -1 -1 -1 -1 -0 0 0 0 1 1 1 1 0 0 0 0 0 0 0 0 0 0 0 -0 -0 -1 -1 -1 0 1 1 1 0 -0 -0 0 0 0 0 1 1 2 2 2 2 2 1 0 -0 -0
-10 -10 -7 -4 -1 -0 1 2 2 3 3 3 3 2 2 1 1 1 0 -0 -1 -0 -0 0 0 0 -0 -0 -0 -0 -0 -0 -0 -0 -0 -0 -0 -0 -0 0 0 -0 -0 -1 -1 -1 -1 -0 0 0 -0 -1 -1 -0 -0 0 1 1 1 1 2 2 2 2 1 0 -0 -1 -1
-5 -6 -5 -2 1 2 3 3 3 3 3 3 3 3 2 2 1 1 1 0 0 1 1 1 1 0 -0 -1 -1 -1 -1 -1 -1 -1 -1 -0 -0 -0 -0 -0 -0 -0 -1 -1 -1 -1 -1 -0 -0 -1 -1 -1 -1 -1 -0 0 1 1 2 2 2 2 2 1 0 -0 -1 -1 -2
-1 -2 -2 -0 2 3 4 3 4 4 3 3 3 3 2 2 2 1 1 0 0 1 1 2 1 0 -0 -1 -2 -2 -2 -2 -2 -1 -1 -1 -1 -0 -0 0 0 -0 -0 -1 -1 -1 -1 -1 -1 -1 -1 -1 -1 -1 -0 1 1 2 2 2 2 2 1 0 -0 -1 -1 -2 -2
4 2 2 3 4 4 4 4 4 4 4 3 3 3 3 2 2 1 1 1 1 1 1 2 2 1 -0 -1 -1 -2 -2 -2 -1 -1 -1 -1 -1 -0 0 1 1 0 -0 -0 -1 -1 -1 -1 -1 -1 -1 -1 -1 -0 0 1 2 2 2 2 2 1 0 -0 -0 -1 -2 -2 -3
12 9 9 9 7 6 6 5 5 5 4 4 3 3 3 2 2 1 1 1 1 1 2 2 2 1 0 -1 -1 -1 -1 -1 -1 -1 -1 -1 -1 -0 0 1 0 0 -0 -0 -1 -1 -1 -1 -1 -1 -1 -1 -0 0 1 2 2 2 2 2 1 1 0 -0 -1 -1 -2 -2 -2
16 12 10 11 10 10 10 8 7 6 5 5 3 3 2 1 1 1 2 2 2 2 2 2 2 2 1 -0 -0 -0 -0 -0 -0 -1 -1 -1 -1 -0 0 0 0 -0 -0 -0 -1 -1 -1 -0 -0 -0 -0 -0 0 1 1 2 2 2 2 2 1 1 0 -1 -1 -2 -2 -2 -2
11 7 6 8 10 11 12 13 10 8 6 5 4 3 1 1 1 2 2 3 3 3 3 2 2 1 1 1 1 0 0 0 -0 -1 -1 -1 -1 -0 -0 -0 -0 -0 -0 -0 -0 -0 -0 0 0 0 0 0 1 1 2 2 3 3 2 2 1 1 0 -1 -1 -2 -2 -2 -2
4 2 1 2 4 6 9 11 11 8 6 5 4 3 2 2 2 2 3 3 3 3 3 3 2 2 1 1 1 1 0 -0 -0 -1 -1 -1 -1 -1 -1 -1 -1 -1 -0 0 1 1 1 1 1 1 1 1 1 2 2 3 3 3 3 2 2 1 0 -1 -1 -2 -2 -2 -2
-1 -3 -3 -3 -2 -0 2 3 3 3 2 2 2 2 3 3 3 3 3 3 3 3 3 2 2 2 2 1 1 1 0 0 -0 -1 -1 -1 -1 -1 -1 -1 -1 -1 -0 1 2 2 1 1 1 1 1 2 2 2 3 3 3 3 3 2 2 1 0 -1 -2 -2 -3 -3 -3
-1 -4 -6 -6 -4 -3 -2 -2 -3 -4 -3 -2 -1 0 1 2 2 2 2 2 2 2 2 2 2 2 1 0 -0 -0 -0 -0 -0 -0 -0 -1 -1 -1 -1 -1 -1 -0 0 2 2 2 2 1 1 1 2 2 2 2 3 3 3 3 3 2 2 1 0 -1 -2 -3 -3 -4 -4
3 1 -3 -6 -5 -4 -3 -3 -4 -6 -6 -5 -3 -2 -1 -0 0 1 1 1 2 2 2 2 1 1 0 -1 -1 -1 -1 -1 -1 -0 -0 -0 -0 -0 -0 -0 -0 0 1 2 3 2 1 0 0 1 1 1 2 2 2 2 2 2 3 2 2 1 -0 -1 -2 -3 -4 -4 -4
4 6 4 -3 -4 -4 -3 -3 -3 -4 -5 -4 -3 -3 -2 -2 -1 -1 0 1 1 2 2 1 1 0 -0 -1 -1 -1 -1 -0 -0 0 0 0 1 1 1 1 1 1 2 3 3 2 1 -0 -1 -0 0 1 1 1 1 1 1 2 2 2 2 1 -0 -1 -1 -2 -3 -3 -3
4 5 5 1 -0 -1 -2 -3 -3 -3 -3 -3 -2 -2 -2 -2 -2 -1 -1 0 0 1 1 1 0 -0 -1 -1 -1 -1 -0 0 1 1 1 1 1 1 2 1 1 2 2 3 3 2 0 -1 -1 -1 -0 0 1 1 1 1 1 1 1 2 2 1 0 -0 -0 -1 -1 -2 -2
5 5 5 4 1 -2 -3 -2 -2 -2 -2 -2 -2 -1 -1 -1 -2 -2 -1 -1 -1 -1 -1 -0 -0 -1 -1 -1 -1 -0 0 1 2 2 2 2 1 1 1 1 2 2 3 3 3 2 1 -1 -1 -1 -1 -0 0 1 1 1 1 1 1 2 2 2 1 -0 -0 -0 0 -0 -0
4 5 6 6 3 1 -1 -2 -2 -1 -0 -0 -0 1 1 -1 -2 -2 -2 -2 -2 -2 -2 -1 -1 -1 -0 -0 0 1 1 2 2 2 2 2 2 1 1 1 2 3 3 3 3 2 1 -0 -1 -1 -1 -1 0 1 1 1 1 1 1 1 1 1 1 0 -0 -0 -0 0 1
1 4 6 7 6 5 4 1 -2 -2 -0 1 1 1 2 2 -0 -1 -1 -2 -2 -2 -2 -2 -1 -1 -0 0 1 2 2 1 1 1 1 1 2 2 2 2 3 3 3 3 3 3 2 1 -1 -1 -1 -1 -0 0 1 1 1 1 1 1 0 0 0 -0 -0 -1 -1 -0 0
-2 0 3 5 6 6 5 4 1 -1 -2 -0 0 0 0 2 1 1 0 -0 -1 -1 -1 -2 -2 -2 -1 1 1 1 1 1 1 1 1 1 2 2 3 4 4 4 3 3 3 4 3 2 -0 -1 -1 -1 -0 0 1 1 1 1 0 0 -0 -0 -1 -1 -1 -1 -1 -0 0
-4 -2 -0 2 4 4 4 3 1 -1 -2 -3 -2 -1 0 1 2 2 3 2 1 -0 -2 -3 -3 -2 -1 0 0 0 0 1 1 1 1 1 2 3 4 5 5 4 4 4 4 5 4 3 1 -0 -1 -1 -0 0 1 1 1 1 1 1 0 -0 -0 -1 -1 -0 -0 1 1
-3 -3 -2 -1 1 2 3 1 -0 -3 -4 -4 -3 -1 0 2 3 3 3 3 1 -1 -2 -3 -2 -1 -1 -0 -0 0 0 0 1 1 1 1 2 3 4 5 5 4 4 4 5 5 4 3 1 -0 -1 -1 -0 -0 0 1 1 1 1 1 1 1 1 0 0 0 1 1 1
-2 -3 -3 -1 -0 1 1 1 -0 -2 -4 -6 -4 -3 -1 1 2 2 2 2 1 0 -0 -1 -0 -0 -0 -0 -0 -0 -0 -0 0 1 1 1 2 3 4 4 4 4 5 5 5 4 4 3 2 1 -0 -1 -1 -0 0 1 2 2 1 1 1 1 1 1 2 1 1 1 1
-0 -2 -3 -2 -1 -0 0 1 1 -0 -2 -5 -5 -4 -2 -1 1 1 2 2 2 2 2 2 1 -0 -1 -1 -2 -2 -1 -1 -1 -0 0 1 2 3 4 4 4 4 5 5 4 3 3 3 3 2 1 -0 -1 -0 0 1 2 1 1 1 1 1 1 2 2 1 1 1 0
1 1 -1 -2 -2 -1 -0 0 1 1 -0 -2 -4 -4 -3 -3 -2 -0 1 2 2 3 3 2 1 -1 -2 -3 -3 -3 -3 -2 -1 -0 1 1 3 3 3 2 3 4 4 4 3 2 2 2 3 2 1 0 -0 -0 0 1 1 1 1 0 1 1 1 1 1 1 1 0 -0
2 3 2 -1 -1 -1 -1 -0 0 1 1 1 -2 -4 -4 -5 -3 -2 -1 0 1 2 2 2 1 -0 -2 -2 -2 -2 -2 -1 -0 0 1 1 2 2 2 1 2 3 3 3 2 2 2 2 2 2 2 1 0 0 1 1 1 1 1 1 1 1 1 1 1 1 0 -0 -1
1 3 4 2 0 -1 -1 -1 -1 -0 1 2 1 -1 -3 -4 -4 -3 -3 -2 -1 -0 1 2 2 2 1 1 -0 -1 -0 0 1 1 1 1 1 2 2 2 1 1 1 1 1 1 1 2 2 2 2 2 1 1 1 1 0 0 1 2 2 2 1 1 2 1 1 -0 -0
-1 1 3 3 1 0 -0 -1 -1 -1 0 2 2 1 -1 -3 -3 -4 -3 -3 -2 -1 0 1 2 3 3 2 1 0 -0 0 1 0 0 1 1 2 2 2 1 0 -0 0 0 1 1 2 2 2 2 2 1 1 1 1 1 1 1 2 2 2 2 2 2 2 1 0 1
-2 -1 1 3 2 2 1 -0 -1 -1 -1 1 2 1 0 -1 -2 -2 -2 -2 -0 1 3 3 3 2 2 1 -0 -1 -0 0 0 0 1 1 1 2 3 2 1 -0 -1 -1 -0 0 1 2 3 3 2 2 1 1 1 2 2 2 2 2 3 3 3 3 3 2 1 1 2
-3 -2 -1 1 2 2 1 -0 -1 -1 -1 -0 1 2 2 1 -0 -1 -1 -1 0 2 4 5 3 0 -1 -2 -2 -2 -1 -1 0 0 1 1 2 2 3 2 1 -0 -1 -1 0 1 1 2 3 3 3 3 2 2 2 3 3 3 2 2 3 4 5 4 3 2 1 1 2
Height
3009 3010 3010 3012 3015 3017 3019 3021 3023 3024 3026 3028 3029 3031 3032 3033 3034 3034 3035 3035 3036 3037 3039 3040 3041 3042 3044 3045 3046 3048 3049 3050 3051 3052 3053 3055 3056 3057 3059 3060 3060 3060 3060 3062 3064 3066 3067 3069 3070 3071 3072 3073 3073 3074 3075 3076 3077 3078 3079 3080 3081 3082 3082 3083 3083 3083 3083 3084 3084
3008 3008 3010 3012 3015 3017 3019 3020 3022 3024 3026 3027 3029 3030 3031 3032 3033 3033 3034 3035 3035 3036 3038 3039 3040 3041 3043 3044 3046 3047 3048 3049 3050 3051 3053 3054 3055 3056 3058 3059 3059 3060 3060 3061 3063 3065 3067 3069 3070 3071 3072 3072 3073 3074 3075 3076 3077 3078 3079 3080 3081 3082 3082 3082 3082 3082 3083 3083 3083
3006 3007 3010 3012 3015 3017 3018 3020 3022 3024 3026 3027 3028 3029 3030 3031 3032 3032 3033 3034 3035 3035 3037 3038 3039 3040 3042 3043 3045 3046 3047 3049 3050 3051 3052 3053 3054 3055 3057 3058 3059 3060 3060 3061 3062 3064 3066 3068 3069 3070 3071 3072 3073 3074 3075 3075 3077 3078 3079 3080 3081 3081 3081 3081 3082 3082 3082 3082 3082
3005 3007 3010 3013 3015 3016 3018 3020 3022 3024 3025 3027 3028 3028 3029 3030 3030 3031 3032 3033 3034 3035 3036 3037 3038 3040 3041 3042 3044 3045 3046 3048 3049 3050 3051 3052 3053 3055 3056 3057 3058 3059 3060 3061 3062 3063 3065 3067 3068 3070 3071 3072 3073 3074 3075 3075 3077 3078 3079 3080 3080 3080 3080 3081 3081 3082 3082 3082 3082
3005 3007 3010 3012 3014 3016 3019 3021 3022 3024 3025 3026 3027 3028 3028 3029 3030 3030 3031 3032 3033 3035 3035 3037 3038 3039 3040 3041 3043 3044 3045 3047 3048 3049 3050 3051 3052 3054 3055 3056 3058 3059 3060 3061 3062 3063 3064 3065 3067 3069 3070 3072 3073 3073 3075 3076 3077 3078 3078 3079 3079 3080 3080 3080 3081 3081 3081 3081 3081
3005 3007 3009 3011 3014 3016 3019 3020 3022 3024 3025 3025 3026 3027 3028 3028 3029 3030 3031 3032 3033 3034 3035 3036 3037 3038 3040 3041 3042 3043 3045 3046 3047 3048 3050 3050 3052 3053 3055 3056 3057 3059 3060 3061 3062 3062 3063 3064 3066 3068 3070 3071 3072 3073 3075 3075 3076 3077 3077 3078 3078 3079 3079 3080 3080 3080 3080 3080 3080
3005 3007 3009 3011 3014 3016 3018 3020 3022 3023 3024 3025 3026 3027 3028 3028 3029 3030 3031 3032 3033 3034 3035 3035 3036 3038 3039 3040 3041 3043 3044 3045 3046 3048 3049 3050 3051 3053 3054 3055 3057 3059 3060 3061 3062 3062 3063 3064 3065 3067 3069 3070 3071 3073 3074 3075 3076 3076 3076 3077 3077 3078 3078 3079 3080 3080 3080 3080 3080
3005 3007 3009 3011 3014 3016 3018 3020 3022 3023 3025 3025 3026 3027 3028 3028 3029 3030 3031 3031 3032 3033 3034 3035 3036 3037 3039 3040 3041 3042 3043 3045 3046 3047 3048 3049 3051 3052 3054 3055 3057 3059 3060 3061 3062 3063 3064 3065 3066 3067 3068 3070 3071 3072 3073 3074 3075 3075 3075 3076 3077 3077 3078 3079 3079 3079 3079 3079 3078
3006 3008 3010 3012 3014 3016 3018 3020 3022 3023 3025 3025 3026 3027 3028 3028 3029 3030 3030 3031 3032 3033 3034 3035 3036 3037 3039 3040 3041 3042 3043 3044 3045 3046 3048 3049 3050 3052 3053 3055 3057 3058 3060 3061 3062 3063 3064 3065 3066 3067 3068 3069 3070 3071 3072 3073 3074 3074 3075 3075 3076 3077 3078 3078 3078 3078 3078 3078 3077
3007 3009 3011 3013 3015 3016 3018 3020 3022 3023 3024 3025 3026 3027 3027 3028 3029 3030 3030 3031 3032 3033 3034 3035 3036 3037 3038 3040 3040 3041 3043 3044 3045 3046 3048 3049 3050 3052 3054 3055 3056 3058 3060 3061 3062 3064 3065 3066 3067 3067 3068 3069 3069 3070 3071 3072 3073 3074 3075 3075 3076 3076 3077 3077 3077 3077 3077 3077 3076
3006 3009 3010 3012 3014 3016 3018 3020 3021 3023 3024 3025 3025 3026 3027 3028 3029 3029 3030 3031 3032 3033 3034 3035 3036 3037 3038 3039 3040 3041 3042 3044 3045 3046 3048 3049 3051 3052 3054 3055 3057 3058 3060 3061 3062 3064 3065 3066 3067 3067 3068 3068 3069 3069 3070 3071 3072 3073 3074 3075 3075 3076 3076 3076 3076 3076 3076 3076 3075
3005 3008 3010 3011 3013 3015 3018 3020 3021 3022 3023 3024 3025 3025 3026 3027 3028 3029 3030 3031 3032 3033 3034 3035 3036 3037 3038 3039 3040 3041 3042 3044 3045 3046 3048 3049 3051 3052 3054 3055 3057 3058 3060 3061 3062 3063 3065 3065 3066 3067 3067 3068 3068 3069 3070 3071 3072 3073 3074 3074 3075 3075 3075 3075 3075 3075 3075 3075 3075
3005 3007 3009 3011 3013 3015 3017 3019 3020 3022 3022 3023 3024 3025 3025 3026 3027 3028 3030 3031 3032 3033 3034 3035 3036 3037 3038 3039 3040 3041 3042 3044 3045 3046 3048 3050 3051 3052 3054 3055 3056 3058 3059 3060 3062 3063 3064 3065 3066 3066 3067 3067 3067 3068 3069 3070 3071 3072 3073 3074 3074 3075 3075 3075 3075 3075 3074 3074 3074
3005 3007 3010 3012 3014 3016 3018 3019 3020 3021 3021 3022 3023 3024 3025 3025 3027 3028 3029 3030 3032 3033 3034 3035 3036 3037 3038 3039 3040 3041 3043 3044 3045 3047 3048 3049 3051 3052 3054 3055 3056 3058 3059 3060 3062 3063 3064 3065 3065 3065 3066 3066 3067 3068 3069 3070 3071 3072 3072 3073 3073 3073 3074 3074 3074 3074 3073 3073 3073
3007 3009 3010 3013 3015 3016 3018 3018 3019 3020 3020 3021 3022 3023 3024 3025 3026 3027 3028 3030 3031 3032 3033 3034 3035 3036 3038 3039 3040 3041 3043 3044 3045 3047 3048 3049 3050 3052 3054 3055 3056 3058 3059 3060 3061 3062 3063 3064 3064 3065 3065 3066 3066 3067 3068 3070 3070 3071 3071 3072 3072 3072 3073 3073 3073 3072 3072 3072 3072
3008 3010 3011 3013 3015 3016 3017 3018 3019 3019 3020 3021 3022 3022 3023 3024 3025 3027 3028 3029 3030 3031 3032 3034 3035 3036 3037 3039 3040 3041 3043 3044 3045 3046 3048 3049 3050 3052 3053 3055 3056 3057 3059 3060 3060 3061 3062 3063 3064 3064 3065 3065 3066 3067 3068 3069 3070 3070 3070 3071 3071 3071 3071 3071 3071 3071 3071 3071 3070
3008 3010 3011 3013 3015 3016 3017 3017 3018 3019 3020 3020 3021 3022 3023 3024 3025 3026 3027 3029 3030 3031 3032 3033 3034 3036 3037 3039 3040 3041 3042 3044 3045 3046 3048 3049 3050 3052 3053 3055 3056 3057 3058 3059 3060 3061 3061 3062 3063 3064 3064 3065 3065 3066 3067 3068 3069 3069 3070 3070 3070 3070 3070 3070 3070 3070 3070 3069 3069
3008 3009 3011 3013 3014 3015 3016 3017 3018 3019 3020 3020 3021 3022 3023 3024 3025 3026 3027 3028 3030 3031 3032 3033 3034 3035 3037 3039 3040 3041 3042 3044 3045 3046 3047 3049 3050 3052 3053 3054 3055 3057 3058 3059 3059 3060 3061 3061 3062 3063 3064 3064 3065 3066 3066 3067 3068 3068 3068 3069 3069 3069 3069 3069 3069 3069 3068 3068 3068
3007 3009 3010 3011 3013 3015 3016 3017 3018 3019 3020 3020 3021 3022 3023 3024 3025 3026 3027 3028 3030 3030 3031 3032 3034 3035 3037 3038 3040 3041 3043 3044 3045 3046 3047 3049 3050 3051 3052 3054 3055 3056 3057 3058 3059 3059 3060 3060 3061 3062 3063 3064 3064 3065 3065 3066 3067 3067 3067 3067 3068 3068 3068 3068 3068 3067 3067 3067 3066
3006 3008 3010 3011 3012 3013 3015 3016 3017 3018 3019 3020 3021 3022 3023 3024 3025 3026 3027 3028 3029 3030 3031 3032 3033 3035 3036 3038 3040 3041 3042 3044 3045 3046 3047 3048 3050 3050 3052 3053 3054 3055 3056 3057 3058 3059 3059 3060 3060 3061 3062 3063 3063 3064 3065 3065 3065 3066 3066 3066 3066 3066 3066 3066 3066 3066 3066 3065 3065
3005 3007 3009 3010 3011 3013 3014 3015 3016 3017 3019 3020 3021 3022 3023 3024 3025 3026 3027 3028 3029 3030 3031 3032 3033 3035 3036 3038 3039 3040 3042 3043 3044 3045 3046 3048 3049 3050 3051 3052 3053 3054 3055 3056 3057 3058 3058 3059 3060 3060 3061 3062 3062 3063 3064 3064 3064 3065 3065 3065 3065 3065 3065 3065 3065 3065 3065 3064 3064
3004 3006 3008 3009 3010 3012 3013 3014 3015 3016 3018 3019 3020 3022 3023 3024 3025 3026 3027 3028 3029 3030 3030 3031 3033 3034 3036 3037 3039 3040 3041 3042 3044 3045 3046 3047 3048 3049 3050 3051 3052 3053 3055 3055 3056 3057 3058 3058 3059 3060 3060 3061 3061 3062 3062 3063 3063 3063 3064 3064 3064 3064 3064 3064 3063 3063 3063 3063 3063
3004 3006 3007 3009 3010 3011 3012 3013 3015 3016 3017 3018 3020 3021 3022 3023 3024 3025 3026 3027 3028 3029 3030 3031 3032 3034 3035 3037 3038 3039 3040 3042 3043 3044 3045 3046 3047 3049 3050 3050 3051 3053 3054 3055 3055 3056 3057 3057 3058 3059 3059 3060 3060 3061 3061 3062 3062 3062 3062 3062 3062 3062 3062 3062 3062 3062 3062 3062 3062
3004 3006 3007 3009 3010 3011 3012 3013 3014 3016 3017 3018 3019 3020 3021 3022 3023 3024 3025 3026 3028 3029 3030 3031 3032 3033 3035 3036 3037 3038 3040 3041 3042 3043 3045 3045 3047 3048 3049 3050 3051 3052 3053 3054 3055 3055 3056 3056 3057 3058 3058 3059 3059 3060 3060 3060 3061 3061 3061 3061 3061 3061 3061 3061 3061 3061 3061 3061 3061
3004 3005 3007 3008 3009 3010 3012 3013 3014 3015 3017 3018 3019 3020 3021 3021 3022 3024 3025 3026 3027 3028 3029 3030 3031 3032 3034 3035 3036 3037 3039 3040 3041 3042 3044 3045 3046 3047 3048 3049 3050 3051 3052 3053 3054 3054 3055 3055 3056 3057 3057 3058 3058 3059 3059 3060 3060 3060 3060 3060 3060 3060 3060 3060 3059 3059 3060 3060 3060
3004 3005 3006 3007 3009 3010 3011 3012 3013 3015 3016 3017 3018 3019 3020 3021 3022 3023 3024 3025 3026 3027 3028 3030 3030 3032 3033 3034 3035 3036 3038 3039 3040 3041 3043 3044 3045 3046 3047 3048 3049 3050 3051 3052 3053 3053 3054 3055 3055 3056 3056 3057 3057 3057 3058 3058 3059 3059 3059 3059 3059 3059 3058 3058 3058 3058 3058 3058 3058
3004 3005 3006 3007 3008 3009 3010 3011 3012 3013 3015 3016 3017 3018 3019 3020 3021 3022 3023 3024 3025 3026 3027 3029 3030 3031 3032 3033 3035 3036 3037 3038 3040 3041 3042 3043 3044 3045 3046 3047 3048 3050 3050 3051 3052 3052 3053 3053 3054 3055 3055 3055 3056 3056 3056 3057 3057 3058 3058 3058 3058 3057 3057 3057 3057 3057 3057 3057 3057
3003 3004 3005 3006 3007 3008 3009 3010 3011 3012 3013 3015 3015 3017 3018 3019 3020 3021 3022 3023 3024 3025 3026 3027 3029 3030 3031 3032 3034 3035 3036 3037 3039 3040 3041 3042 3043 3044 3045 3046 3047 3048 3049 3050 3051 3051 3052 3052 3053 3053 3054 3054 3055 3055 3055 3056 3056 3056 3056 3057 3056 3056 3056 3056 3056 3056 3055 3055 3055
3002 3003 3003 3005 3006 3007 3008 3009 3010 3011 3012 3013 3014 3016 3017 3018 3019 3020 3021 3022 3023 3024 3025 3026 3027 3029 3030 3031 3032 3034 3035 3036 3037 3039 3040 3041 3042 3043 3044 3045 3046 3047 3048 3049 3050 3050 3050 3051 3051 3052 3052 3053 3053 3054 3054 3055 3055 3055 3055 3055 3055 3055 3055 3055 3055 3054 3054 3054 3054
3000 3001 3002 3003 3005 3006 3007 3008 3009 3010 3011 3012 3013 3014 3015 3016 3017 3018 3020 3020 3021 3023 3024 3025 3026 3027 3029 3030 3031 3033 3034 3035 3036 3037 3038 3039 3040 3041 3043 3044 3045 3046 3047 3047 3048 3049 3049 3050 3050 3050 3051 3052 3052 3053 3053 3053 3054 3054 3054 3054 3054 3054 3054 3054 3053 3053 3053 3052 3052
3000 3000 3001 3002 3003 3005 3005 3006 3007 3009 3010 3010 3012 3013 3014 3015 3016 3017 3018 3019 3020 3021 3023 3024 3025 3026 3028 3029 3030 3032 3033 3034 3035 3036 3037 3038 3039 3040 3041 3043 3044 3045 3045 3046 3047 3047 3048 3048 3049 3049 3050 3050 3051 3051 3052 3052 3052 3052 3052 3053 3053 3053 3052 3052 3052 3052 3051 3051 3051
2998 2999 3000 3001 3002 3003 3004 3005 3006 3007 3009 3010 3010 3011 3013 3014 3015 3016 3017 3018 3019 3020 3021 3022 3023 3025 3026 3028 3029 3030 3031 3033 3034 3035 3036 3037 3038 3039 3040 3041 3042 3043 3044 3045 3045 3046 3046 3047 3047 3047 3048 3049 3049 3050 3050 3050 3051 3051 3051 3051 3051 3051 3051 3051 3050 3050 3050 3050 3049
2998 2998 2999 3000 3001 3002 3003 3004 3005 3006 3007 3009 3009 3010 3011 3012 3014 3015 3015 3017 3017 3018 3020 3021 3022 3024 3025 3026 3027 3029 3030 3031 3032 3033 3034 3035 3036 3037 3039 3040 3040 3041 3042 3043 3044 3045 3045 3045 3045 3046 3047 3047 3048 3048 3049 3049 3049 3050 3050 3050 3050 3050 3050 3050 3049 3049 3048 3048 3048
2997 2997 2998 2999 3000 3001 3002 3003 3004 3005 3006 3007 3008 3010 3010 3011 3012 3013 3014 3015 3016 3017 3018 3020 3021 3022 3023 3025 3026 3027 3028 3030 3030 3032 3033 3034 3035 3036 3037 3038 3039 3040 3041 3041 3042 3043 3043 3044 3044 3045 3045 3045 3046 3046 3047 3047 3048 3048 3048 3048 3048 3048 3048 3048 3048 3047 3047 3046 3046
2996 2996 2997 2998 2999 3000 3001 3002 3003 3004 3005 3005 3007 3008 3010 3010 3011 3012 3013 3014 3015 3016 3017 3018 3020 3020 3022 3023 3024 3025 3026 3028 3029 3030 3031 3032 3033 3034 3035 3036 3037 3038 3039 3040 3040 3041 3041 3042 3043 3043 3043 3044 3044 3045 3045 3045 3046 3046 3046 3046 3046 3046 3046 3046 3046 3045 3045 3045 3045
2995 2995 2996 2997 2998 2999 3000 3001 3002 3003 3004 3005 3005 3007 3008 3009 3010 3011 3012 3013 3014 3015 3016 3017 3018 3019 3020 3021 3022 3023 3025 3026 3027 3028 3029 3030 3031 3033 3034 3035 3035 3036 3037 3038 3038 3039 3040 3040 3041 3041 3042 3042 3042 3043 3043 3044 3044 3045 3045 3045 3045 3045 3045 3044 3044 3044 3043 3043 3043
2993 2994 2995 2995 2996 2997 2998 2999 3000 3001 3003 3004 3005 3005 3007 3008 3009 3010 3011 3012 3013 3014 3015 3016 3017 3018 3019 3020 3021 3022 3023 3024 3025 3026 3027 3029 3030 3031 3032 3033 3033 3034 3035 3036 3036 3037 3038 3038 3039 3040 3040 3040 3040 3041 3042 3042 3042 3043 3043 3043 3043 3043 3043 3042 3042 3042 3042 3041 3041
2990 2992 2993 2994 2995 2995 2996 2998 2999 3000 3001 3003 3004 3005 3005 3007 3008 3009 3010 3011 3012 3013 3014 3015 3016 3017 3018 3019 3020 3020 3021 3022 3024 3025 3025 3027 3028 3029 3030 3030 3031 3032 3033 3034 3034 3035 3036 3036 3037 3038 3038 3038 3039 3039 3040 3040 3040 3041 3041 3041 3041 3041 3041 3041 3040 3040 3040 3040 3040
2989 2990 2991 2992 2993 2994 2995 2996 2997 2999 3000 3001 3003 3003 3004 3005 3006 3007 3009 3010 3010 3011 3012 3013 3015 3015 3016 3017 3018 3019 3020 3021 3022 3023 3024 3025 3026 3027 3028 3029 3029 3030 3031 3032 3032 3033 3034 3034 3035 3035 3036 3036 3037 3037 3038 3038 3038 3039 3039 3039 3039 3039 3039 3039 3039 3039 3039 3039 3039
2987 2988 2989 2990 2991 2992 2994 2995 2996 2997 2999 3000 3001 3002 3003 3004 3005 3006 3007 3008 3009 3010 3011 3011 3012 3013 3014 3015 3016 3017 3018 3019 3020 3021 3022 3023 3024 3025 3025 3026 3027 3028 3029 3029 3030 3031 3031 3032 3033 3033 3034 3034 3035 3035 3035 3036 3036 3037 3037 3037 3037 3037 3037 3037 3037 3037 3037 3037 3037
2985 2986 2987 2988 2989 2990 2992 2993 2994 2995 2997 2998 3000 3000 3001 3002 3003 3004 3005 3006 3007 3008 3009 3010 3010 3011 3012 3013 3014 3015 3016 3017 3019 3020 3020 3021 3022 3023 3023 3024 3025 3025 3026 3027 3028 3029 3029 3030 3030 3031 3032 3032 3032 3033 3034 3034 3034 3035 3035 3035 3035 3035 3035 3035 3036 3036 3036 3036 3036